Вернуться в каталог

CZ-6A DEB

АктивенPO
NORAD 60639·DEBRIS·🇨🇳 China

Запущен Aug 6, 2024 с Taiyuan Satellite Launch Center

Loading…

Ближайшие Пролёты (ближайшие 24 часа)

TLE

СвежийSource: Space-Track

Эпоха: Sep 14, 2026, 08:25 UTC

1 60639U 24140AQ  26257.35081220  .00000086  00000-0  79685-4 0  9991
2 60639  88.4768 234.7742 0454118 202.8002 155.2401 13.36055154102401

Отслеживайте CZ-6A DEB в реальном времени с AllMySat

Download on the App Store